Location: Newark
(37.3333°N, 6.0167°W)
Time: 23:07:48
(UTC+00:00)

Envisat - Visible Passes

Search period start: 24 March 2019 00:00
Search period end: 03 April 2019 00:00
Orbit: 764 x 766 km, 98.2° (Epoch: 24 March)

Date Brightness Start Highest point End Pass type
(mag) Time Alt. Az. Time Alt. Az. Time Alt. Az.
24 Mar 3.1 19:03:16 10° SSE 19:08:20 89° W 19:13:27 10° NNW visible
25 Mar 5.6 20:07:02 10° SW 20:10:50 21° W 20:14:40 10° NW visible
26 Mar 4.0 19:29:00 10° S 19:33:54 49° W 19:38:49 10° NNW visible
27 Mar 6.1 20:35:05 10° WSW 20:36:37 11° W 20:38:10 10° WNW visible
28 Mar 5.2 19:55:17 10° SSW 19:59:33 27° W 20:03:50 10° NW visible
29 Mar 3.6 19:17:38 10° S 19:22:39 63° W 19:27:42 10° NNW visible
30 Mar 5.9 20:22:27 10° SW 20:25:17 15° W 20:28:08 10° WNW visible
31 Mar 4.7 19:43:40 10° SSW 19:48:16 34° W 19:52:53 10° NNW visible
01 Apr 3.2 19:06:22 10° S 19:11:26 82° WSW 19:16:32 10° NNW visible
02 Apr 5.7 20:10:23 10° SW 20:13:58 19° W 20:17:34 10° NW visible
